Tracking 19909 objects as of 21-Oct-2019
HD Live streaming from Space Station
objects crossing your sky now

COSMOS 2251 DEB

Track COSMOS 2251 DEB now!
10-day predictions


NORAD ID: 35441
Int'l Code: 1993-036AKK
Perigee: 732.7 km
Apogee: 808.8 km
Inclination: 74.1 °
Period: 100.1 minutes
Semi major axis: 7141 km
RCS: 0.0123 m2 (small)
Launch date: June 16, 1993
Source: Commonwealth of Independent States (former USSR) (CIS)
Launch site: PLESETSK MISSILE AND SPACE COMPLEX (PKMTR)

Note: This is SATELLITE DEBRIS
aabbcc
Your satellite tracking list
Your tracking list is empty




NASA's NSSDC Master Catalog

Two Line Element Set (TLE):
1 35441U 93036AKK 19292.23862630  .00000590  00000-0  19855-3 0  9996
2 35441  74.1432 134.6568 0053243 288.5394  70.9980 14.38448467550708
Source of the keplerian elements: AFSPC